[[{"header":{"parameterUnit":"m.s-1","parameterCategory":1,"la1":30.2991,"la2":30.254,"lo1":-89.0895,"lo2":-89.0444,"dx":0.0017,"dy":0.0017,"nx":28,"ny":28,"refTime":"2022-12-30T15:00:00:Z","depth":0,"parameterNumber":2,"parameterNumberName":"U-component_of_WINDS"},"data":[0,0,0,0,0,0,0,0,0,0,0,0,0,0,0,0,0,0,0,0,0,0,0,0,0,0,0,0,0,0,0,0,0,0,0,0,0,0,0,0,0,0,0,0,0,0,0,0,0,0,0,0,0,0,0,0,0,0,0.6172,0.6173,0,0.6257,0.6257,0.6258,0.6315,0.6316,0.6316,0.6316,0.6402,0.6403,0.6405,0,0,0,0,0,0,0,0,0,0,0,0,0,0.606,0.6062,0.6172,0.6173,0.6174,0.6256,0.6258,0.6259,0.6315,0.6316,0.6316,0.6317,0.6401,0.6403,0.6405,0,0,0,0,0,0,0,0,0,0,0,0,0,0.6123,0.6062,0.6172,0.6213,0.6217,0.6256,0.6258,0.6259,0.6315,0.6316,0.6316,0.6317,0.64,0.6403,0.6406,0.6411,0,0,0.6414,0.6416,0,0,0,0,0,0,0,0,0.6119,0.6127,0.6206,0.621,0.6215,0.6276,0.6249,0.631,0.6315,0.6278,0.6316,0.6317,0.6359,0.6365,0.638,0.6415,0.6419,0.6415,0.6416,0.6418,0.6418,0,0,0,0,0,0,0,0.6115,0.6124,0.6206,0.6207,0.6212,0.6226,0.6236,0.6261,0.6314,0.6281,0.6285,0.6295,0.6362,0.6377,0.6382,0.642,0.6415,0.6417,0.6419,0.642,0.6463,0.6463,0,0,0,0,0,0,0.6104,0.612,0.6203,0.6208,0.6168,0.6228,0.6239,0.6256,0.6314,0.6323,0.6294,0.6297,0.6372,0.6379,0.6385,0.6395,0.6418,0.642,0.6422,0.6464,0.6463,0.6462,0,0,0,0,0,0,0.6102,0.6111,0.62,0.6165,0.6177,0.6229,0.6248,0.6257,0.6272,0.6324,0.6333,0.63,0.6373,0.6382,0.6404,0.6399,0.6421,0.6424,0.6464,0.6464,0.6463,0.6414,0,0,0,0,0,0,0.6098,0.611,0.6112,0.6165,0.6179,0.6217,0.6248,0.6258,0.6277,0.6282,0.6332,0.634,0.6374,0.64,0.6407,0.6403,0.6426,0.6465,0.6464,0.6463,0.6416,0.6411,0.6407,0,0,0,0,0,0.6094,0.6095,0.6112,0.6122,0.6183,0.6216,0.6225,0.6263,0.6276,0.6279,0.6312,0.6339,0.6398,0.6402,0.641,0.6407,0.6466,0.6464,0.6463,0.6418,0.6412,0.6407,0,0,0,0,0,0,0.604,0.6103,0.6122,0.6141,0.6173,0.6226,0.6231,0.6256,0.6285,0.6288,0.6334,0.6345,0.6363,0.6388,0.639,0.6415,0.6435,0.6436,0.6398,0.6393,0.6388,0.6381,0.6429,0,0,0,0,0,0.6031,0.6053,0.6106,0.6117,0.6132,0.6178,0.6194,0.6221,0.6256,0.627,0.6305,0.6338,0.6364,0.638,0.6407,0.642,0.6432,0.6423,0.6418,0.6414,0.6414,0.6422,0.6418,0.6458,0.6458,0.6458,0,0,0.6011,0.6048,0.6058,0.6107,0.6135,0.6156,0.6189,0.6211,0.6227,0.6273,0.6297,0.6323,0.6363,0.6381,0.6391,0.6402,0.6405,0.6413,0.6409,0.6411,0.642,0.6416,0.6413,0.6458,0.6458,0.6458,0,0,0.5985,0.6016,0.6028,0.6055,0.6098,0.6129,0.6132,0.6181,0.6201,0.6225,0.6261,0.628,0.6325,0.6351,0.637,0.6355,0.638,0.6363,0.6339,0.6347,0.6344,0.6341,0.6335,0.6332,0.6363,0.6362,0.6362,0,0.5955,0.5988,0.6031,0.605,0.607,0.6114,0.6126,0.6151,0.6199,0.6212,0.6225,0.6281,0.6311,0.6335,0.6331,0.6346,0.635,0.6357,0.6341,0.6339,0.6337,0.6331,0.6329,0.636,0.636,0.6361,0.6361,0,0.5948,0.5971,0.5976,0.6022,0.6043,0.6058,0.6103,0.6119,0.6144,0.6174,0.6198,0.6236,0.627,0.6279,0.6304,0.6307,0.6312,0.6332,0.6353,0.633,0.6325,0.6324,0.6356,0.6357,0.6358,0.6359,0,0,0.589,0.596,0.5961,0.5982,0.6032,0.605,0.6068,0.6103,0.6115,0.6148,0.6163,0.62,0.6218,0.624,0.6269,0.6276,0.626,0.6295,0.6297,0.6286,0.6265,0.6248,0.6245,0.6278,0.6278,0.6278,0.6261,0,0.587,0.5904,0.5943,0.5963,0.5984,0.6027,0.6043,0.6075,0.6103,0.6125,0.6157,0.6181,0.6205,0.6218,0.6227,0.626,0.6256,0.6262,0.6292,0.6292,0.6279,0.6243,0.6225,0.6208,0.626,0.6259,0.6259,0,0.5852,0.5882,0.5905,0.5953,0.5963,0.5976,0.6011,0.6032,0.607,0.609,0.6114,0.6145,0.6166,0.6185,0.6214,0.6217,0.6231,0.6249,0.625,0.6253,0.6273,0.6243,0.6203,0.6199,0.6257,0.6257,0.6257,0,0.5805,0.5852,0.5871,0.5888,0.5946,0.5954,0.5978,0.6016,0.6035,0.6065,0.6077,0.611,0.6127,0.6152,0.619,0.6201,0.6214,0.6237,0.623,0.6229,0.623,0.6229,0.619,0.6242,0.6242,0.6242,0.6242,0,0.5778,0.579,0.5851,0.5862,0.5877,0.5922,0.5934,0.5963,0.5996,0.6014,0.6054,0.6069,0.612,0.6141,0.6172,0.619,0.6198,0.6214,0.6222,0.621,0.6208,0.6219,0.622,0.6241,0.6241,0.6241,0.6242,0,0.5728,0.5769,0.5793,0.5845,0.5859,0.5867,0.5912,0.5925,0.5956,0.5977,0.5985,0.6034,0.6061,0.6103,0.6143,0.6163,0.6176,0.619,0.6163,0.6167,0.6158,0.6157,0.6123,0.612,0.6175,0.6175,0.6174,0,0.5707,0.5717,0.5771,0.5786,0.5808,0.5832,0.5851,0.5896,0.5914,0.5958,0.5965,0.5996,0.6022,0.6064,0.6103,0.6134,0.6147,0.6133,0.6152,0.6139,0.6145,0.6143,0.6144,0.6128,0.6127,0.6127,0.6126,0,0.5665,0.5686,0.5712,0.5745,0.5766,0.5795,0.5825,0.5835,0.5886,0.5905,0.5933,0.5954,0.5995,0.6025,0.6061,0.6086,0.6114,0.612,0.612,0.6107,0.609,0.6097,0.6149,0.612,0.6121,0.6121,0.6122,0.6122,0.5628,0.5639,0.5678,0.5706,0.5733,0.5761,0.5775,0.5808,0.5833,0.587,0.5896,0.5922,0.596,0.6012,0.6035,0.6057,0.6069,0.6069,0.6069,0.6067,0.6062,0.6088,0.6064,0.6064,0.6064,0.6064,0.6065,0,0.5587,0.5615,0.564,0.5681,0.5703,0.5729,0.5764,0.578,0.5803,0.5836,0.5862,0.5895,0.5924,0.5965,0.5997,0.6006,0.602,0.6013,0.6012,0.6017,0.605,0.6047,0.6002,0.6002,0.6002,0.6002,0.6002,0.6002,0.5568,0.5587,0.5612,0.5645,0.5673,0.57,0.5717,0.5743,0.5769,0.5804,0.5829,0.5856,0.5892,0.5927,0.5955,0.5966,0.5976,0.5964,0.5979,0.6009,0.6015,0.602,0.6017,0.5966,0.5966,0.5944,0.5944,0.5944]},{"header":{"parameterUnit":"m.s-1","parameterCategory":1,"la1":30.2991,"la2":30.254,"lo1":-89.0895,"lo2":-89.0444,"dx":0.0017,"dy":0.0017,"nx":28,"ny":28,"refTime":"2022-12-30T15:00:00:Z","depth":0,"parameterNumber":3,"parameterNumberName":"V-component_of_WINDS"},"data":[0,0,0,0,0,0,0,0,0,0,0,0,0,0,0,0,0,0,0,0,0,0,0,0,0,0,0,0,0,0,0,0,0,0,0,0,0,0,0,0,0,0,0,0,0,0,0,0,0,0,0,0,0,0,0,0,0,0,-0.206,-0.2061,0,-0.2113,-0.2114,-0.2114,-0.2108,-0.2107,-0.2107,-0.2106,-0.2162,-0.2164,-0.2166,0,0,0,0,0,0,0,0,0,0,0,0,0,-0.1956,-0.1958,-0.206,-0.2061,-0.2062,-0.2113,-0.2114,-0.2115,-0.2108,-0.2107,-0.2106,-0.2105,-0.2161,-0.2164,-0.2166,0,0,0,0,0,0,0,0,0,0,0,0,0,-0.2004,-0.1959,-0.206,-0.2065,-0.2066,-0.2113,-0.2114,-0.2115,-0.2109,-0.2107,-0.2106,-0.2105,-0.216,-0.2163,-0.2167,-0.2213,0,0,-0.2177,-0.2179,0,0,0,0,0,0,0,0,-0.2002,-0.2008,-0.2063,-0.2065,-0.2066,-0.2103,-0.2098,-0.2148,-0.2109,-0.2092,-0.2106,-0.2104,-0.2143,-0.2148,-0.2161,-0.2216,-0.2218,-0.2177,-0.218,-0.2181,-0.2182,0,0,0,0,0,0,0,-0.1998,-0.2006,-0.2081,-0.2064,-0.2066,-0.2065,-0.207,-0.2107,-0.2124,-0.2094,-0.2093,-0.21,-0.2144,-0.2157,-0.2162,-0.2219,-0.2177,-0.218,-0.2182,-0.2184,-0.2316,-0.2318,0,0,0,0,0,0,-0.1994,-0.2003,-0.208,-0.2083,-0.203,-0.2068,-0.2074,-0.2092,-0.2124,-0.2128,-0.2101,-0.2099,-0.2152,-0.2158,-0.2164,-0.2221,-0.2181,-0.2184,-0.2186,-0.2315,-0.2316,-0.2318,0,0,0,0,0,0,-0.1991,-0.2001,-0.2077,-0.2043,-0.2053,-0.2071,-0.2092,-0.2094,-0.2108,-0.2129,-0.2132,-0.2111,-0.2151,-0.2159,-0.2201,-0.2223,-0.2186,-0.2189,-0.2313,-0.2315,-0.2317,-0.2335,0,0,0,0,0,0,-0.1988,-0.2,-0.2017,-0.2043,-0.2055,-0.2113,-0.2093,-0.2096,-0.2113,-0.2112,-0.214,-0.2144,-0.2151,-0.2196,-0.2205,-0.2227,-0.2191,-0.2311,-0.2314,-0.2317,-0.2333,-0.2338,-0.2342,0,0,0,0,0,-0.1985,-0.202,-0.2018,-0.2027,-0.2077,-0.2114,-0.2121,-0.2128,-0.2115,-0.2133,-0.2147,-0.2143,-0.2219,-0.22,-0.221,-0.2234,-0.231,-0.2313,-0.2316,-0.2331,-0.2337,-0.2342,0,0,0,0,0,0,-0.1996,-0.2024,-0.2022,-0.2066,-0.2088,-0.2113,-0.2136,-0.2134,-0.216,-0.2158,-0.2166,-0.2173,-0.2215,-0.2229,-0.2207,-0.2281,-0.2263,-0.2268,-0.227,-0.2276,-0.2281,-0.2277,-0.2194,0,0,0,0,0,-0.2004,-0.2032,-0.2055,-0.2092,-0.2103,-0.2118,-0.2134,-0.2138,-0.2161,-0.217,-0.2187,-0.221,-0.224,-0.2259,-0.2287,-0.2335,-0.2341,-0.2356,-0.236,-0.2364,-0.2369,-0.2395,-0.2402,-0.2329,-0.2329,-0.2329,0,0,-0.202,-0.2039,-0.2056,-0.2095,-0.2112,-0.2141,-0.2125,-0.2157,-0.2179,-0.2175,-0.2216,-0.2229,-0.2256,-0.2301,-0.2322,-0.2313,-0.239,-0.2368,-0.2371,-0.2374,-0.24,-0.2407,-0.2413,-0.2331,-0.2331,-0.233,0,0,-0.2065,-0.2082,-0.2115,-0.2132,-0.2159,-0.2168,-0.2176,-0.2202,-0.2211,-0.2251,-0.2249,-0.2276,-0.2326,-0.2345,-0.2361,-0.2414,-0.2412,-0.2423,-0.2447,-0.2473,-0.2479,-0.2484,-0.2504,-0.251,-0.2428,-0.2428,-0.2428,0,-0.2082,-0.2125,-0.2132,-0.2164,-0.2182,-0.2179,-0.2214,-0.2231,-0.2265,-0.2277,-0.2267,-0.233,-0.2348,-0.2398,-0.2411,-0.2424,-0.2434,-0.242,-0.2478,-0.2483,-0.2488,-0.2506,-0.2514,-0.2429,-0.2429,-0.2429,-0.2429,0,-0.2145,-0.2176,-0.2199,-0.2232,-0.2252,-0.2285,-0.2298,-0.2318,-0.232,-0.2331,-0.2373,-0.2394,-0.2427,-0.2439,-0.2441,-0.249,-0.2484,-0.2476,-0.2458,-0.2496,-0.2514,-0.2521,-0.2431,-0.243,-0.243,-0.243,0,0,-0.2198,-0.2234,-0.2243,-0.2258,-0.2287,-0.2311,-0.2345,-0.2376,-0.2393,-0.2417,-0.2445,-0.2488,-0.2481,-0.25,-0.2505,-0.2528,-0.2569,-0.2517,-0.2518,-0.2526,-0.2624,-0.2629,-0.2637,-0.2567,-0.2568,-0.257,-0.2621,0,-0.2246,-0.2304,-0.2311,-0.2363,-0.2391,-0.239,-0.2419,-0.2441,-0.2452,-0.2479,-0.2492,-0.2522,-0.251,-0.2521,-0.2544,-0.2559,-0.2588,-0.2555,-0.2594,-0.2596,-0.2588,-0.2646,-0.2652,-0.27,-0.2628,-0.2629,-0.263,0,-0.2309,-0.2334,-0.2389,-0.2414,-0.2427,-0.2452,-0.2482,-0.2507,-0.2532,-0.2539,-0.256,-0.2562,-0.2597,-0.2578,-0.2627,-0.2605,-0.2621,-0.2631,-0.2633,-0.2637,-0.2615,-0.2652,-0.2715,-0.2723,-0.2641,-0.264,-0.2639,0,-0.2342,-0.239,-0.2429,-0.2442,-0.2473,-0.2491,-0.2505,-0.2528,-0.2547,-0.2573,-0.2586,-0.2616,-0.2633,-0.2656,-0.2667,-0.2652,-0.2716,-0.2698,-0.2723,-0.2723,-0.2736,-0.2735,-0.2804,-0.2747,-0.2747,-0.2747,-0.2747,0,-0.2394,-0.2428,-0.2444,-0.2468,-0.2506,-0.2514,-0.2552,-0.2565,-0.2586,-0.2613,-0.2615,-0.264,-0.2653,-0.2681,-0.269,-0.2729,-0.2737,-0.2744,-0.2746,-0.2744,-0.2743,-0.2755,-0.2752,-0.2749,-0.2749,-0.2748,-0.2748,0,-0.2437,-0.245,-0.2492,-0.2518,-0.2525,-0.2552,-0.2575,-0.2598,-0.261,-0.2644,-0.2653,-0.2671,-0.2704,-0.2717,-0.2758,-0.2764,-0.2809,-0.2809,-0.2801,-0.2801,-0.2826,-0.2824,-0.2904,-0.2916,-0.2852,-0.2852,-0.2853,0,-0.247,-0.2495,-0.2524,-0.2542,-0.2556,-0.2585,-0.2604,-0.2614,-0.2634,-0.2665,-0.2685,-0.2718,-0.2744,-0.2797,-0.2815,-0.2846,-0.2846,-0.2872,-0.2851,-0.2848,-0.2847,-0.2845,-0.2848,-0.2876,-0.2877,-0.2877,-0.2878,0,-0.2526,-0.2531,-0.2558,-0.2587,-0.261,-0.2634,-0.2657,-0.2672,-0.2686,-0.2708,-0.2741,-0.2762,-0.2803,-0.2836,-0.2868,-0.2884,-0.2883,-0.2884,-0.2892,-0.289,-0.2884,-0.2888,-0.2812,-0.2882,-0.2882,-0.2882,-0.2881,-0.2881,-0.2565,-0.2588,-0.2612,-0.2642,-0.266,-0.2682,-0.2706,-0.272,-0.2748,-0.2782,-0.2787,-0.2823,-0.2848,-0.2891,-0.2908,-0.2936,-0.293,-0.2941,-0.2943,-0.2946,-0.2948,-0.288,-0.2942,-0.2942,-0.2942,-0.2942,-0.2942,0,-0.2621,-0.2637,-0.2664,-0.2697,-0.2721,-0.2718,-0.2744,-0.2764,-0.2796,-0.2819,-0.2845,-0.2884,-0.2916,-0.2936,-0.2969,-0.2988,-0.2989,-0.2996,-0.2995,-0.2998,-0.2952,-0.2942,-0.2995,-0.2995,-0.2995,-0.2995,-0.2995,-0.2995,-0.2653,-0.2692,-0.27,-0.2748,-0.2764,-0.2799,-0.2814,-0.2834,-0.2853,-0.2896,-0.2922,-0.2935,-0.2957,-0.2992,-0.3021,-0.3026,-0.3038,-0.3046,-0.3051,-0.3007,-0.3002,-0.2996,-0.2987,-0.3049,-0.3049,-0.3095,-0.3096,-0.3096]}]]